GSAT0208 (PRN E08)

Last updated on Jan. 22, 2021, 6:27 a.m. UTC

1 41175U 15079B   21020.99206138  .00000029  00000-0  00000+0 0  9993
2 41175  55.0305 155.4928 0001998 331.7276  28.2234  1.70473702 31723
UTC
Height (km)
Latitude
Longitude
Inclination
Orbital Period
UTC large
Height (km)
Speed (km/s)
/
Latitude / Longitude
Inclination (degrees)
Orbital Period (minutes)
Azimuth
Elevation
Range (km)
Doppler Factor
iOS Compass Heading
iOS Angle

Next 30 passes for location: Hong Kong

Rise time Rise Azimuth (degrees) Set time Set Azimuth (degrees) Duration Max altitude (degrees)

No matching passes for this satellites